Orbital Elements at Epoch 2459200.5 (2020-Dec-17.0) TDB
Reference: JPL 16 (heliocentric ecliptic J2000)
Element | Value | Uncertainty (1-sigma) | Units |
e | .2733122291089348 | 7.41e-08 | |
a | 2.99733801905998 | 1.6192e-08 | au |
q | 2.178128883677738 | 2.1828e-07 | au |
i | 12.19571570804831 | 4.657e-06 | deg |
node | 171.1629799738972 | 2.2836e-05 | deg |
peri | 32.32795915151286 | 2.616e-05 | deg |
M | 122.1755182704391 | 7.057e-06 | deg |
tp | 2458557.244216333116 (2019-Mar-14.74421633) | 3.8626e-05 | TDB |
period | 1895.404950175751 5.19 | 1.5359e-05 4.205e-08 | d yr |
n | .1899330272228207 | 1.5391e-09 | deg/d |
Q | 3.816547154442222 | 2.0618e-08 | au |
|
| | Orbit Determination Parameters
Additional Information
|